COSMOS 2432 (719)

Last updated on July 6, 2021, 3:39 p.m. UTC

1 32276U 07052B   21187.12643084 -.00000048  00000-0  00000+0 0  9993
2 32276  66.0820  16.2584 0008885 342.5365 216.7483  2.13103573106583
UTC
Height (km)
Latitude
Longitude
Inclination
Orbital Period
UTC large
Height (km)
Speed (km/s)
/
Latitude / Longitude
Inclination (degrees)
Orbital Period (minutes)
Azimuth
Elevation
Range (km)
Doppler Factor
iOS Compass Heading
iOS Angle